Location: Unspecified
(38.9820°N, 94.4650°W)
Time: 20:46:18
(UTC-05:00)

Okean 3 - Visible Passes

Search period start: 22 April 2018 00:00
Search period end: 02 May 2018 00:00
Orbit: 578 x 601 km, 82.5° (Epoch: 22 April)

Date Brightness Start Highest point End Pass type
(mag) Time Alt. Az. Time Alt. Az. Time Alt. Az.
22 Apr 6.7 01:08:34 10° NNE 01:08:34 10° NNE 01:08:35 10° NNE visible
23 Apr 6.6 01:16:29 12° N 01:16:29 12° N 01:16:45 10° N visible
24 Apr 6.6 01:24:24 12° N 01:24:24 12° N 01:24:48 10° N visible
25 Apr 6.6 01:32:18 12° NNW 01:32:18 12° NNW 01:32:42 10° N visible
26 Apr 6.6 01:40:11 11° NNW 01:40:11 11° NNW 01:40:27 10° NNW visible
27 Apr 6.5 00:11:32 11° NNE 00:11:32 11° NNE 00:11:40 10° NNE visible
28 Apr 6.3 00:19:23 14° NNE 00:19:23 14° NNE 00:19:59 10° NNE visible
29 Apr 6.2 00:27:14 16° N 00:27:14 16° N 00:28:09 10° N visible
30 Apr 6.2 00:35:04 18° N 00:35:04 18° N 00:36:12 10° N visible
01 May 6.1 00:42:53 18° NNW 00:42:53 18° NNW 00:44:08 10° N visible
01 May 6.1 23:14:10 11° NE 23:14:10 11° NE 23:14:29 10° NE visible
